Location: Gleizolles
(44.4833°N, 6.7667°E)
Time: 17:05:55
(UTC+00:00)

RS-15 - Pass Details

Date: 09 December 2022
Orbit: 1883 x 2162 km, 64.8° (Epoch: 05 February)

Event Time Altitude Azimuth Distance (km) Brightness Sun altitude
Rises 18:10:52 0° 321° (NW) 5,688 10.9 -23.7°
Reaches altitude 10° 18:14:28 10° 325° (NW) 4,668 10.3 -24.3°
Maximum altitude 18:26:39 64° 47° (NE) 2,274 8.0 -26.5°
Enters shadow 18:31:58 38° 112° (ESE) 2,869 8.4 -27.4°
